Location: Decatur Area Astronomy Club
(40.0275°N, 88.7810°W)
Time: 06:59:40
(UTC-05:00)

Amateur Radio Satellites - All Passes

Search period start: 29 August 2014 06:29
Search period end: 30 August 2014 06:29
Location: Decatur Area Astronomy Club, 40.0275°N, 88.7810°W

Satellite Date Start Highest point End Downlink Frequencies (MHz)
Time Altitude Azimuth
RS-15 29 Aug 06:37:58 06:45:58 24° 102° (ESE) 06:53:50 29.354 - 29.394 USB, Beacon 29.352 USB
AO-7 29 Aug 06:40:45 06:48:19 41° 298° (WNW) 06:55:51 29.400 - 29.500 MHz
Uosat F 29 Aug 06:58:05 07:00:20 13° 300° (WNW) 07:02:35 435.120 FM
Saudisat 1A 29 Aug 07:00:54 07:04:07 19° 45° (NE) 07:07:20 436.775 MHz
KITSAT 1 29 Aug 07:10:20 07:16:04 20° 35° (NE) 07:21:45 435.175 FM
STRAND 1 29 Aug 07:17:59 07:22:58 55° 259° (W) 07:27:59 ?
JAS-2 29 Aug 07:24:05 07:29:16 67° 286° (WNW) 07:34:47 435.800 - 435.900 CW/SSB, 435.910 FM
Hamsat 29 Aug 07:37:15 07:41:08 32° 289° (WNW) 07:44:59 145.90 MHz
UOSAT-12 29 Aug 07:47:26 07:50:39 18° 318° (NW) 07:53:54 437.025 FM, 437.400 FM
SO-67 29 Aug 08:08:06 08:11:35 87° 283° (WNW) 08:15:02 435.3500 MHz FM
HO-68 29 Aug 08:26:24 08:29:33 13° 89° (E) 08:32:42 435.675 MHz FM
Saudisat 1A 29 Aug 08:39:42 08:44:00 51° 242° (WSW) 08:48:15 436.775 MHz
RS-15 29 Aug 08:45:48 08:56:56 85° 302° (WNW) 09:07:55 29.354 - 29.394 USB, Beacon 29.352 USB
KITSAT 1 29 Aug 09:04:52 09:12:58 73° 58° (ENE) 09:21:00 435.175 FM
UKube-1 29 Aug 09:17:23 09:19:27 13° 92° (E) 09:21:30 145.840 MHz, 145.915 MHz
Oscar 11 29 Aug 09:26:29 09:27:12 10° 90° (E) 09:27:55 145.825 FM, Beacon 2401.500 USB
HO-68 29 Aug 10:11:00 10:18:12 83° 106° (ESE) 10:25:22 435.675 MHz FM
ISS 29 Aug 10:23:53 10:26:22 20° 132° (SE) 10:28:52 145.800 FM
UKube-1 29 Aug 10:51:43 10:55:57 52° 287° (WNW) 11:00:09 145.840 MHz, 145.915 MHz
Oscar 11 29 Aug 10:59:27 11:03:48 66° 285° (WNW) 11:08:07 145.825 FM, Beacon 2401.500 USB
KITSAT 1 29 Aug 11:01:33 11:07:33 24° 256° (WSW) 11:13:33 435.175 FM
RS-15 29 Aug 11:01:58 11:11:04 29° 328° (NNW) 11:20:13 29.354 - 29.394 USB, Beacon 29.352 USB
FUNcube-1 29 Aug 11:20:29 11:25:01 81° 102° (ESE) 11:29:37 145.950 - 145.970 MHz USB
ISS 29 Aug 11:59:41 12:02:54 45° 328° (NNW) 12:06:07 145.800 FM
HO-68 29 Aug 12:00:16 12:05:03 20° 304° (NW) 12:09:50 435.675 MHz FM
JAS-1B 29 Aug 12:04:08 12:07:56 13° 51° (NE) 12:11:36 435.800 - 435.900 CW/SSB
Oscar 16 29 Aug 12:20:36 12:23:44 17° 62° (ENE) 12:26:53 437.025 USB, Beacon 2401.1428
SO-50 29 Aug 12:27:49 12:32:11 34° 50° (NE) 12:36:34 436.795 FM
AO-27 29 Aug 12:44:53 12:46:46 12° 59° (ENE) 12:48:38 436.795 MHz FM
FUNcube-1 29 Aug 12:59:57 13:00:46 10° 298° (WNW) 13:01:34 145.950 - 145.970 MHz USB
MaSat-1 29 Aug 13:08:14 13:12:31 33° 106° (ESE) 13:17:04 437.345 MHz
RS-15 29 Aug 13:21:39 13:28:40 18° 4° (N) 13:35:46 29.354 - 29.394 USB, Beacon 29.352 USB
Oscar 19 29 Aug 13:22:50 13:27:54 59° 73° (ENE) 13:33:00 437.125 CW, 437.150 USB
ISS 29 Aug 13:38:27 13:40:17 14° 347° (NNW) 13:42:08 145.800 FM
JAS-1B 29 Aug 13:47:18 13:56:47 57° 69° (ENE) 14:05:24 435.800 - 435.900 CW/SSB
PANSAT 29 Aug 13:48:53 13:50:58 14° 175° (S) 13:53:03 not established
ITAMSAT 1 29 Aug 13:51:56 13:56:54 49° 71° (ENE) 14:01:52 435.822 SSB
TMSAT-1 29 Aug 13:54:56 13:58:24 18° 63° (ENE) 14:01:52 436.925 FM
Oscar 16 29 Aug 13:57:27 14:02:32 63° 259° (WSW) 14:07:41 437.025 USB, Beacon 2401.1428
AO-7 29 Aug 13:59:36 14:02:51 13° 45° (NE) 14:06:06 29.400 - 29.500 MHz
AO-Echo 29 Aug 14:02:07 14:07:09 67° 74° (ENE) 14:12:02 ?
Uribyol 2 29 Aug 14:02:08 14:07:13 66° 73° (ENE) 14:12:21 436.500 FM
SO-50 29 Aug 14:08:29 14:12:40 30° 247° (WSW) 14:16:53 436.795 FM
AO-27 29 Aug 14:20:19 14:25:31 88° 256° (WSW) 14:30:43 436.795 MHz FM
UOSAT-12 29 Aug 14:35:49 14:40:24 47° 53° (NE) 14:44:53 437.025 FM, 437.400 FM
Gurwin Techsat 1B 29 Aug 14:40:04 14:45:17 63° 73° (ENE) 14:50:32 435.225 FM
MaSat-1 29 Aug 14:45:09 14:49:31 31° 304° (NW) 14:54:06 437.345 MHz
Uosat F 29 Aug 14:54:52 14:56:44 12° 60° (ENE) 14:58:36 435.120 FM
Oscar 19 29 Aug 15:04:32 15:07:37 16° 269° (W) 15:10:43 437.125 CW, 437.150 USB
ISS 29 Aug 15:16:43 15:18:09 12° 8° (N) 15:19:35 145.800 FM
PANSAT 29 Aug 15:28:35 15:30:26 13° 188° (S) 15:32:18 not established
TMSAT-1 29 Aug 15:32:37 15:37:49 59° 259° (W) 15:43:04 436.925 FM
ITAMSAT 1 29 Aug 15:33:01 15:36:39 19° 267° (W) 15:40:17 435.822 SSB
RS-15 29 Aug 15:35:50 15:45:44 36° 38° (NE) 15:55:51 29.354 - 29.394 USB, Beacon 29.352 USB
JAS-1B 29 Aug 15:38:26 15:47:20 38° 264° (W) 15:55:38 435.800 - 435.900 CW/SSB
AO-Echo 29 Aug 15:44:00 15:46:19 13° 269° (W) 15:48:36 ?
Uribyol 2 29 Aug 15:44:29 15:47:09 14° 269° (W) 15:49:49 436.500 FM
AO-7 29 Aug 15:45:47 15:53:52 58° 66° (ENE) 16:01:58 29.400 - 29.500 MHz
Oscar 10/S400 29 Aug 15:50:21 16:04:48 21° 145° (SE) 16:18:42 145.825 - 145.975 CW/USB, Beacon 145.810 USB
Sapphire 29 Aug 16:09:00 16:11:48 14° 103° (ESE) 16:14:37 437.095 MHz 1200 baud AX-25 AFSK
OPAL 29 Aug 16:10:59 16:13:13 13° 92° (E) 16:15:25 ?
UOSAT-12 29 Aug 16:16:48 16:20:11 20° 250° (WSW) 16:23:32 437.025 FM, 437.400 FM
Gurwin Techsat 1B 29 Aug 16:22:34 16:25:40 16° 269° (W) 16:28:47 435.225 FM
Uosat F 29 Aug 16:29:47 16:34:48 83° 256° (WSW) 16:39:51 435.120 FM
PCSat 29 Aug 16:36:32 16:41:06 29° 108° (ESE) 16:45:42 145.825 MHz
ISS 29 Aug 16:52:45 16:55:44 29° 27° (NNE) 16:58:42 145.800 FM
Hamsat 29 Aug 16:55:31 16:58:00 15° 65° (ENE) 17:00:29 145.90 MHz
JAS-2 29 Aug 17:35:22 17:41:18 47° 71° (ENE) 17:46:38 435.800 - 435.900 CW/SSB, 435.910 FM
AO-7 29 Aug 17:39:51 17:46:59 31° 264° (W) 17:54:09 29.400 - 29.500 MHz
OPAL 29 Aug 17:47:22 17:52:36 76° 288° (WNW) 17:57:48 ?
RS-15 29 Aug 17:48:05 17:59:10 77° 243° (WSW) 18:10:42 29.354 - 29.394 USB, Beacon 29.352 USB
Sapphire 29 Aug 17:49:09 17:54:33 73° 300° (WNW) 17:59:59 437.095 MHz 1200 baud AX-25 AFSK
PCSat 29 Aug 18:19:17 18:24:20 39° 306° (NW) 18:29:26 145.825 MHz
Hamsat 29 Aug 18:29:22 18:33:32 48° 261° (W) 18:37:45 145.90 MHz
ISS 29 Aug 18:29:25 18:32:29 35° 224° (SW) 18:35:33 145.800 FM
SO-67 29 Aug 18:40:50 18:43:45 26° 71° (ENE) 18:46:41 435.3500 MHz FM
HO-68 29 Aug 18:57:30 18:59:12 11° 49° (NE) 19:00:55 435.675 MHz FM
JAS-2 29 Aug 19:21:34 19:26:31 24° 264° (W) 19:31:05 435.800 - 435.900 CW/SSB, 435.910 FM
STRAND 1 29 Aug 19:29:08 19:34:08 53° 100° (E) 19:39:06 ?
OPAL 29 Aug 19:29:56 19:30:34 10° 305° (NW) 19:31:13 ?
Sapphire 29 Aug 19:36:26 19:38:57 13° 320° (NW) 19:41:28 437.095 MHz 1200 baud AX-25 AFSK
RS-15 29 Aug 20:03:34 20:09:40 17° 262° (W) 20:15:55 29.354 - 29.394 USB, Beacon 29.352 USB
UKube-1 29 Aug 20:13:24 20:14:59 12° 62° (ENE) 20:16:34 145.840 MHz, 145.915 MHz
SO-67 29 Aug 20:14:35 20:16:49 16° 267° (W) 20:19:03 435.3500 MHz FM
HO-68 29 Aug 20:38:28 20:45:26 59° 69° (ENE) 20:52:25 435.675 MHz FM
STRAND 1 29 Aug 21:09:25 21:12:54 19° 297° (WNW) 21:16:23 ?
UKube-1 29 Aug 21:46:19 21:50:37 66° 258° (WSW) 21:54:57 145.840 MHz, 145.915 MHz
Oscar 11 29 Aug 21:53:32 21:57:52 88° 76° (ENE) 22:02:14 145.825 FM, Beacon 2401.500 USB
FUNcube-1 29 Aug 22:16:27 22:20:32 58° 74° (ENE) 22:24:42 145.950 - 145.970 MHz USB
HO-68 29 Aug 22:27:48 22:33:30 26° 266° (W) 22:39:14 435.675 MHz FM
Saudisat 1A 29 Aug 22:45:21 22:49:33 46° 117° (ESE) 22:53:48 436.775 MHz
MaSat-1 29 Aug 23:02:55 23:07:29 57° 61° (ENE) 23:11:24 437.345 MHz
KITSAT 1 29 Aug 23:32:01 23:39:50 56° 113° (ESE) 23:47:41 435.175 FM
FUNcube-1 29 Aug 23:56:15 23:57:20 11° 270° (W) 23:58:25 145.950 - 145.970 MHz USB
Saudisat 1A 30 Aug 00:26:00 00:29:22 21° 315° (NW) 00:32:45 436.775 MHz
MaSat-1 30 Aug 00:42:06 00:43:41 12° 262° (W) 00:45:11 437.345 MHz
Sapphire 30 Aug 00:56:09 00:58:54 14° 41° (NE) 01:01:39 437.095 MHz 1200 baud AX-25 AFSK
PCSat 30 Aug 01:24:45 01:29:03 23° 48° (NE) 01:33:19 145.825 MHz
KITSAT 1 30 Aug 01:28:13 01:35:33 37° 313° (NW) 01:42:55 435.175 FM
Oscar 19 30 Aug 01:35:53 01:39:54 22° 94° (E) 01:43:52 437.125 CW, 437.150 USB
ITAMSAT 1 30 Aug 02:06:26 02:09:59 18° 93° (E) 02:13:31 435.822 SSB
Oscar 16 30 Aug 02:09:50 02:14:53 49° 100° (E) 02:19:54 437.025 USB, Beacon 2401.1428
AO-Echo 30 Aug 02:10:51 02:14:23 21° 94° (E) 02:17:55 ?
Uribyol 2 30 Aug 02:16:08 02:20:21 25° 95° (E) 02:24:32 436.500 FM
AO-27 30 Aug 02:34:20 02:39:04 35° 97° (E) 02:43:46 436.795 MHz FM
Sapphire 30 Aug 02:37:48 02:43:15 78° 61° (ENE) 02:48:40 437.095 MHz 1200 baud AX-25 AFSK
SO-50 30 Aug 02:46:04 02:46:51 10° 106° (ESE) 02:47:38 436.795 FM
Gurwin Techsat 1B 30 Aug 02:57:30 03:01:55 26° 95° (E) 03:06:18 435.225 FM
PCSat 30 Aug 03:07:30 03:12:49 55° 246° (WSW) 03:18:04 145.825 MHz
Oscar 19 30 Aug 03:14:29 03:19:24 43° 290° (WNW) 03:24:16 437.125 CW, 437.150 USB
OPAL 30 Aug 03:24:28 03:28:20 23° 62° (ENE) 03:32:15 ?
JAS-1B 30 Aug 03:26:05 03:32:56 83° 104° (ESE) 03:38:50 435.800 - 435.900 CW/SSB
KITSAT 1 30 Aug 03:30:50 03:33:49 12° 340° (NNW) 03:36:48 435.175 FM
ITAMSAT 1 30 Aug 03:44:44 03:49:46 52° 289° (WNW) 03:54:46 435.822 SSB
AO-Echo 30 Aug 03:48:58 03:53:17 37° 290° (WNW) 03:57:36 ?
TMSAT-1 30 Aug 03:49:03 03:54:17 59° 101° (E) 03:59:30 436.925 FM
AO-7 30 Aug 03:49:52 03:55:03 18° 91° (E) 04:00:10 29.400 - 29.500 MHz
Oscar 16 30 Aug 03:50:04 03:53:52 21° 296° (WNW) 03:57:39 437.025 USB, Beacon 2401.1428
Uribyol 2 30 Aug 03:55:06 03:59:54 39° 291° (WNW) 04:04:42 436.500 FM
AO-27 30 Aug 04:14:04 04:18:26 28° 293° (WNW) 04:22:47 436.795 MHz FM
SO-50 30 Aug 04:22:14 04:26:41 77° 303° (WNW) 04:31:17 436.795 FM
Sapphire 30 Aug 04:23:25 04:25:57 13° 257° (WSW) 04:28:29 437.095 MHz 1200 baud AX-25 AFSK
Gurwin Techsat 1B 30 Aug 04:37:05 04:41:57 38° 291° (WNW) 04:46:48 435.225 FM
Uosat F 30 Aug 04:38:32 04:42:59 31° 97° (E) 04:47:24 435.120 FM
UOSAT-12 30 Aug 04:48:11 04:50:57 16° 109° (ESE) 04:53:44 437.025 FM, 437.400 FM
OPAL 30 Aug 05:02:05 05:06:53 45° 259° (W) 05:11:48 ?
JAS-1B 30 Aug 05:18:35 05:22:26 16° 307° (NW) 05:26:00 435.800 - 435.900 CW/SSB
TMSAT-1 30 Aug 05:30:13 05:33:43 18° 297° (WNW) 05:37:13 436.925 FM
KITSAT 1 30 Aug 05:33:14 05:33:54 10° 12° (NNE) 05:34:34 435.175 FM
AO-7 30 Aug 05:40:26 05:48:47 89° 289° (WNW) 05:57:04 29.400 - 29.500 MHz
RS-15 30 Aug 06:04:40 06:10:31 16° 98° (E) 06:16:18 29.354 - 29.394 USB, Beacon 29.352 USB
SO-50 30 Aug 06:06:14 06:08:04 12° 323° (NW) 06:09:54 436.795 FM
Hamsat 30 Aug 06:15:59 06:19:51 30° 96° (E) 06:23:39 145.90 MHz
Uosat F 30 Aug 06:17:24 06:21:40 29° 293° (WNW) 06:25:56 435.120 FM
